Hourly Weather Sankt Polten

Today, 19 September, Saturday

Time Temperature Precipitation Wind Pressure Humidity
00:00 +10°C° 0 mm 2 mps 742 mmHg 77%
01:00 +10°C° 0 mm 1 mps 742 mmHg 78%
02:00 +10°C° 0 mm 1 mps 742 mmHg 78%
03:00 +10°C° 0 mm 1 mps 741 mmHg 79%
04:00 +10°C° 0 mm 1 mps 741 mmHg 79%
05:00 +10°C° 0 mm 1 mps 741 mmHg 77%
06:00 +11°C° 0 mm 1 mps 741 mmHg 75%
07:00 +11°C° 0 mm 1 mps 741 mmHg 74%
08:00 +13°C° 0 mm 2 mps 741 mmHg 68%
09:00 +15°C° 0 mm 2 mps 740 mmHg 62%
10:00 +17°C° 0 mm 2 mps 740 mmHg 56%
11:00 +19°C° 0 mm 2 mps 740 mmHg 53%
12:00 +20°C° 0 mm 2 mps 739 mmHg 49%
13:00 +23°C° 0 mm 2 mps 739 mmHg 45%
14:00 +23°C° 0 mm 2 mps 739 mmHg 48%
15:00 +21°C° 0 mm 2 mps 738 mmHg 51%
16:00 +21°C° 0 mm 2 mps 738 mmHg 54%
17:00 +19°C° 0 mm 2 mps 738 mmHg 58%
18:00 +17°C° 0 mm 2 mps 738 mmHg 62%
19:00 +15°C° 0 mm 2 mps 737 mmHg 66%
20:00 +14°C° 0 mm 2 mps 737 mmHg 67%
21:00 +13°C° 0 mm 2 mps 738 mmHg 68%
22:00 +13°C° 0 mm 2 mps 738 mmHg 69%
23:00 +12°C° 0 mm 1 mps 738 mmHg 70%

Tomorrow, 20 September, Sunday

Time Temperature Precipitation Wind Pressure Humidity
00:00 +12°C° 0 mm 1 mps 737 mmHg 70%
01:00 +12°C° 0 mm 1 mps 737 mmHg 70%
02:00 +11°C° 0 mm 1 mps 737 mmHg 70%
03:00 +11°C° 0 mm 1 mps 737 mmHg 70%
04:00 +11°C° 0 mm 1 mps 737 mmHg 70%
05:00 +11°C° 0 mm 1 mps 737 mmHg 69%
06:00 +12°C° 0 mm 1 mps 737 mmHg 68%
07:00 +12°C° 0 mm 1 mps 737 mmHg 68%
08:00 +14°C° 0 mm 1 mps 737 mmHg 61%
09:00 +18°C° 0 mm 1 mps 737 mmHg 55%
10:00 +19°C° 0 mm 2 mps 737 mmHg 49%
11:00 +20°C° 0 mm 2 mps 736 mmHg 48%
12:00 +21°C° 0 mm 2 mps 736 mmHg 46%
13:00 +22°C° 0 mm 3 mps 736 mmHg 45%
14:00 +23°C° 0 mm 2 mps 736 mmHg 48%
15:00 +23°C° 0 mm 2 mps 736 mmHg 52%
16:00 +23°C° 0 mm 2 mps 735 mmHg 55%
17:00 +20°C° 0 mm 2 mps 735 mmHg 60%
18:00 +18°C° 0 mm 2 mps 735 mmHg 65%
19:00 +16°C° 0 mm 2 mps 735 mmHg 70%
20:00 +15°C° 0 mm 2 mps 735 mmHg 71%
21:00 +14°C° 0 mm 1 mps 736 mmHg 72%
22:00 +14°C° 0 mm 1 mps 736 mmHg 74%
23:00 +13°C° 0 mm 1 mps 736 mmHg 75%

Day after tomorrow, 21 September, Monday

Time Temperature Precipitation Wind Pressure Humidity
00:00 +13°C° 0 mm 1 mps 735 mmHg 76%
01:00 +13°C° 0 mm 1 mps 735 mmHg 77%
02:00 +13°C° 0 mm 1 mps 735 mmHg 78%
03:00 +13°C° 0 mm 1 mps 735 mmHg 79%
04:00 +11°C° 0 mm 0 mps 736 mmHg 80%
05:00 +12°C° 0 mm 0 mps 736 mmHg 79%
06:00 +13°C° 0 mm 0 mps 736 mmHg 78%
07:00 +13°C° 0 mm 0 mps 736 mmHg 77%
08:00 +18°C° 0 mm 1 mps 736 mmHg 71%
09:00 +20°C° 0 mm 1 mps 736 mmHg 65%
10:00 +22°C° 0 mm 1 mps 736 mmHg 58%
11:00 +23°C° 0 mm 1 mps 736 mmHg 56%
12:00 +24°C° 0 mm 2 mps 736 mmHg 55%
13:00 +25°C° 0 mm 2 mps 736 mmHg 53%
14:00 +25°C° 0 mm 2 mps 736 mmHg 55%
15:00 +25°C° 0 mm 2 mps 735 mmHg 57%
16:00 +25°C° 0 mm 1 mps 735 mmHg 59%
17:00 +23°C° 0 mm 1 mps 735 mmHg 64%
18:00 +21°C° 0 mm 1 mps 735 mmHg 69%
19:00 +19°C° 0 mm 1 mps 735 mmHg 74%
20:00 +18°C° 0 mm 1 mps 735 mmHg 74%
21:00 +18°C° 0 mm 1 mps 735 mmHg 75%
22:00 +16°C° 0 mm 1 mps 735 mmHg 75%
23:00 +16°C° 0 mm 1 mps 735 mmHg 76%

22 September, Tuesday

Time Temperature Precipitation Wind Pressure Humidity
00:00 +16°C° 0 mm 1 mps 735 mmHg 77%
01:00 +15°C° 0 mm 1 mps 735 mmHg 77%
02:00 +15°C° 0 mm 1 mps 734 mmHg 79%
03:00 +15°C° 0 mm 1 mps 734 mmHg 80%
04:00 +15°C° 0 mm 1 mps 734 mmHg 81%
05:00 +15°C° 0 mm 1 mps 734 mmHg 81%
06:00 +15°C° 0 mm 0 mps 734 mmHg 80%
07:00 +15°C° 0 mm 0 mps 734 mmHg 80%
08:00 +19°C° 0 mm 1 mps 734 mmHg 73%
09:00 +22°C° 0 mm 1 mps 734 mmHg 66%
10:00 +24°C° 0 mm 1 mps 734 mmHg 59%
11:00 +25°C° 0 mm 1 mps 734 mmHg 57%
12:00 +26°C° 0 mm 1 mps 734 mmHg 55%
13:00 +27°C° 0 mm 1 mps 733 mmHg 53%
14:00 +27°C° 0 mm 1 mps 733 mmHg 55%
15:00 +26°C° 0 mm 1 mps 732 mmHg 58%
16:00 +26°C° 0 mm 1 mps 732 mmHg 60%
17:00 +24°C° 0.1 mm 1 mps 732 mmHg 68%
18:00 +22°C° 0.1 mm 1 mps 731 mmHg 75%
19:00 +20°C° 0.1 mm 1 mps 731 mmHg 82%
20:00 +20°C° 0.1 mm 1 mps 731 mmHg 84%
21:00 +19°C° 0.1 mm 1 mps 731 mmHg 86%
22:00 +19°C° 0.1 mm 1 mps 731 mmHg 88%
23:00 +19°C° 0 mm 1 mps 731 mmHg 89%

23 September, Wednesday

Time Temperature Precipitation Wind Pressure Humidity
00:00 +18°C° 0 mm 1 mps 731 mmHg 90%
01:00 +18°C° 0 mm 1 mps 730 mmHg 92%
02:00 +18°C° 0 mm 1 mps 730 mmHg 91%
03:00 +16°C° 0 mm 1 mps 730 mmHg 91%
04:00 +16°C° 0 mm 1 mps 730 mmHg 91%
05:00 +16°C° 0.1 mm 1 mps 730 mmHg 90%
06:00 +18°C° 0.1 mm 1 mps 730 mmHg 89%
07:00 +18°C° 0.1 mm 1 mps 730 mmHg 88%
08:00 +20°C° 0.1 mm 1 mps 730 mmHg 82%
09:00 +22°C° 0.1 mm 1 mps 730 mmHg 76%
10:00 +23°C° 0.1 mm 1 mps 730 mmHg 71%
11:00 +24°C° 0.8 mm 1 mps 730 mmHg 70%
12:00 +24°C° 0.8 mm 1 mps 730 mmHg 68%
13:00 +25°C° 0.8 mm 1 mps 729 mmHg 67%
14:00 +25°C° 0.7 mm 1 mps 729 mmHg 70%
15:00 +24°C° 0.7 mm 1 mps 728 mmHg 73%
16:00 +22°C° 0.7 mm 0 mps 728 mmHg 75%
17:00 +21°C° 0.2 mm 0 mps 728 mmHg 78%
18:00 +21°C° 0.2 mm 1 mps 728 mmHg 81%
19:00 +20°C° 0.2 mm 1 mps 728 mmHg 85%
20:00 +19°C° 0.2 mm 1 mps 728 mmHg 87%
21:00 +19°C° 0.2 mm 1 mps 729 mmHg 89%
22:00 +17°C° 0.2 mm 2 mps 729 mmHg 90%
23:00 +17°C° 0 mm 2 mps 729 mmHg 91%

24 September, Thursday

Time Temperature Precipitation Wind Pressure Humidity
00:00 +17°C° 0 mm 3 mps 729 mmHg 91%
01:00 +17°C° 0 mm 3 mps 729 mmHg 92%
02:00 +17°C° 0 mm 3 mps 729 mmHg 91%
03:00 +17°C° 0 mm 3 mps 729 mmHg 91%
04:00 +17°C° 0 mm 2 mps 730 mmHg 90%
05:00 +16°C° 0.1 mm 2 mps 730 mmHg 91%
06:00 +16°C° 0.1 mm 2 mps 730 mmHg 91%
07:00 +16°C° 0.1 mm 1 mps 730 mmHg 91%
08:00 +18°C° 0.4 mm 1 mps 730 mmHg 91%
09:00 +18°C° 0.4 mm 1 mps 730 mmHg 90%
10:00 +18°C° 0.4 mm 1 mps 730 mmHg 89%
11:00 +19°C° 0.6 mm 1 mps 730 mmHg 87%
12:00 +19°C° 0.6 mm 1 mps 729 mmHg 85%
13:00 +20°C° 0.6 mm 1 mps 729 mmHg 84%
14:00 +19°C° 0 mm 2 mps 729 mmHg 80%
15:00 +20°C° 0 mm 2 mps 728 mmHg 76%
16:00 +21°C° 0 mm 2 mps 728 mmHg 72%
17:00 +19°C° 0 mm 2 mps 728 mmHg 79%
18:00 +18°C° 0 mm 2 mps 727 mmHg 85%
19:00 +16°C° 0 mm 2 mps 727 mmHg 91%
20:00 +16°C° 0 mm 2 mps 727 mmHg 92%
21:00 +16°C° 0 mm 1 mps 726 mmHg 93%
22:00 +15°C° 0 mm 1 mps 726 mmHg 94%
23:00 +15°C° 0 mm 1 mps 725 mmHg 94%
Show more